Вернуться в каталог

BREEZE-M DEB

LostHEO
NORAD 36958·DEBRIS·🇷🇺 Russia

Запущен Feb 28, 2006 с Baikonur Cosmodrome

Loading…

Ближайшие Пролёты (ближайшие 24 часа)

TLE

УстаревшееSource: Space-Track

Эпоха: Jul 20, 2026, 03:22 UTC

1 36958U 06006CQ  26201.14078353  .00003304  00000-0  14300-2 0  9995
2 36958  51.7408  91.5103 4314002 222.5186  94.6359  6.67038815  5798

Отслеживайте BREEZE-M DEB в реальном времени с AllMySat

Download on the App Store